Lid_Strength_Index
-1 -1 -2 -2 -1 -1 -1 -1 -1 -1 -1 -1 -1 -1 -1 -1 -1 -0 1 -1 3 6 5 4 3 6 7 7 8 7 8 7 8 11 11 10 10 8 9 8 10 11 11 11 10 13 14 7 7 11 8 6 5 5
-2 -2 -1 -1 -1 -1 -1 -1 -1 -1 -1 -1 -1 -1 -1 -1 -1 -1 3 -1 -1 4 5 2 2 2 3 4 7 7 7 8 8 10 10 10 11 9 9 11 7 11 8 10 9 10 7 6 7 5 5 5 5 5
-2 -2 -1 -1 -1 -1 -1 -1 -1 -1 -1 -1 -1 -1 -1 -1 -1 -0 1 0 2 5 5 4 4 1 1 2 2 7 7 6 6 6 8 9 12 8 12 10 8 8 6 9 9 9 7 6 5 5 4 5 4 4
-1 -1 -1 -1 -1 -1 -1 -1 -1 -1 -1 -0 -1 -1 -1 -0 -0 -0 1 -0 2 4 8 5 1 3 1 1 3 3 5 5 6 6 7 9 11 7 9 9 10 8 8 8 9 8 7 6 5 5 4 4 4 3
-1 -1 -1 -1 -1 -1 -1 -1 -1 -0 -0 -0 -0 -0 -1 -0 0 -0 -0 0 1 5 8 6 3 1 1 3 2 3 5 8 8 8 9 10 6 7 7 9 11 9 10 9 10 7 7 7 5 6 5 5 4 4
-1 -1 -1 -1 -1 -1 -1 -1 -0 -0 -0 -0 -0 -0 -0 -0 0 1 4 3 1 1 6 9 3 3 2 2 3 4 4 6 8 8 8 9 6 7 11 13 8 7 6 6 7 6 6 6 6 5 6 6 5 5
-1 -1 -1 -0 -1 -1 -1 -0 -0 -0 0 -0 0 0 -0 0 1 3 4 2 2 1 7 9 7 3 3 3 3 4 4 5 7 7 9 9 8 7 10 13 8 7 5 5 5 6 7 6 8 7 6 6 6 5
-0 -0 -0 -0 -0 -0 -0 0 -0 -0 0 0 0 0 0 0 1 3 1 1 1 5 6 9 9 7 3 5 6 4 6 6 7 7 8 9 8 8 12 9 7 7 6 7 6 6 6 6 6 7 6 6 6 6
-1 -1 -1 -1 -1 -1 -0 -0 -0 -0 -0 -0 0 1 1 2 3 2 1 1 2 5 9 8 10 10 3 4 5 5 6 9 6 8 9 8 9 13 10 8 7 7 7 7 7 6 6 7 7 6 6 6 6 6
-1 -1 -1 -1 -1 -0 -1 -1 -0 0 0 1 1 2 4 1 0 0 2 5 6 5 6 8 5 8 5 5 6 6 6 9 11 9 6 10 11 8 7 6 6 6 6 6 8 8 8 7 7 6 6 5 5 5
-1 -1 -1 -1 -0 -0 -0 0 0 0 0 2 4 4 1 -0 2 3 6 8 7 9 6 6 6 8 4 8 7 5 7 8 11 10 11 12 12 9 6 6 5 5 5 5 5 5 5 6 6 5 5 5 4 3
0 0 0 0 0 0 0 0 0 1 1 2 2 1 1 3 5 8 8 7 9 9 6 7 7 5 5 4 7 6 8 7 12 7 10 14 10 7 6 6 5 4 4 4 4 5 5 5 5 4 3 3 3 2
1 1 1 0 0 0 0 0 1 0 1 0 2 5 6 6 11 12 13 11 11 7 6 6 7 5 5 5 6 6 9 11 6 10 13 11 8 7 5 5 5 4 5 4 5 5 4 4 3 3 3 3 2 3
1 1 1 1 1 1 1 1 1 2 2 5 7 11 10 11 10 10 10 9 6 6 6 6 6 6 5 6 6 9 8 6 12 13 14 10 7 6 5 4 4 4 4 5 5 4 5 4 3 2 2 2 3 3
1 1 1 1 1 1 1 1 2 -0 3 7 8 12 10 7 7 6 5 5 4 4 5 6 5 5 7 8 7 8 10 13 13 13 10 7 6 5 5 4 4 4 3 4 3 3 3 3 3 2 2 2 2 2
1 2 1 1 1 1 1 1 -0 -0 3 5 6 8 6 7 6 5 5 6 4 4 4 5 7 8 9 8 10 12 12 15 12 9 7 6 5 4 4 4 3 3 3 3 3 2 2 2 3 2 2 2 2 2
1 1 1 1 1 1 2 1 1 4 5 6 6 4 5 5 6 5 5 5 3 5 7 6 10 11 7 10 12 10 12 10 8 7 5 4 5 4 4 3 3 3 3 3 2 2 2 2 1 2 3 2 2 1
1 0 0 1 1 0 -0 1 2 4 7 5 6 5 4 4 5 5 4 4 4 5 6 8 6 10 12 13 11 8 7 6 5 5 5 4 3 3 3 3 3 3 3 2 2 2 2 2 2 2 2 1 1 1
1 1 1 1 1 1 3 3 2 6 5 5 5 4 4 4 3 3 3 3 3 3 4 6 8 10 10 8 8 6 6 5 6 4 4 3 3 3 3 2 2 3 2 2 2 2 2 2 2 2 2 1 2 2
1 1 1 1 1 2 5 4 1 4 6 5 4 5 4 5 4 3 3 4 4 5 6 8 8 6 6 5 4 4 4 4 4 4 4 3 3 2 3 2 3 2 2 2 2 5 2 2 2 1 1 2 2 2
1 0 1 1 1 1 3 4 4 4 4 5 4 4 5 4 5 5 5 3 5 6 7 5 5 4 3 3 3 3 3 3 4 4 4 4 3 2 3 3 3 3 4 4 4 4 4 4 4 3 3 3 3 2
2 2 1 1 3 3 3 2 4 3 4 5 5 4 6 7 7 6 5 6 7 6 5 5 4 4 4 4 3 3 3 3 2 2 4 3 3 3 3 3 3 4 4 5 5 5 5 5 5 5 4 4 4 3
3 3 2 3 6 7 7 3 6 6 8 7 5 7 8 7 6 4 8 6 6 3 3 3 3 3 3 2 2 2 2 2 3 3 2 3 3 4 4 4 4 4 5 5 5 5 5 7 6 5 5 4 4 3
3 4 6 6 6 8 4 6 4 6 6 8 9 10 9 7 5 7 9 7 5 3 3 3 3 3 2 2 3 3 3 2 3 2 2 2 2 3 3 3 3 3 4 4 4 4 4 4 6 4 4 4 4 4
7 8 6 10 5 7 8 8 8 7 9 8 9 8 7 6 9 8 9 6 5 4 3 2 3 3 3 3 3 3 2 3 4 4 3 3 3 3 3 2 2 3 3 4 5 5 5 5 4 5 5 5 5 5
10 6 9 7 6 8 8 9 8 8 8 8 8 5 5 7 9 10 8 6 5 4 3 4 4 4 5 5 5 5 5 4 4 5 4 3 3 4 4 5 5 5 4 4 5 5 5 5 5 5 5 5 7 5
10 8 5 3 5 5 6 5 5 7 9 9 7 7 7 9 10 7 4 3 5 4 3 4 4 5 5 5 5 5 5 5 4 4 4 3 3 3 4 5 5 5 4 4 4 4 5 5 5 5 5 4 4 5
5 5 8 6 6 4 7 7 7 8 7 5 6 8 9 9 8 6 5 4 5 5 4 4 4 4 5 5 6 6 6 6 5 5 5 3 3 4 4 4 4 7 4 4 4 4 4 5 5 5 6 6 6 6
6 4 5 7 6 6 6 6 6 5 4 5 6 7 7 7 6 6 5 5 4 5 6 6 6 5 5 5 5 5 5 6 7 7 7 7 6 6 4 4 4 4 4 5 9 7 6 7 6 6 6 6 6 6
5 3 6 7 7 7 6 4 4 3 4 4 5 5 6 5 4 3 3 4 4 5 5 6 6 6 7 6 6 6 5 5 6 7 8 8 7 6 6 6 6 6 6 6 6 6 8 7 7 7 7 7 7 7
4 4 5 5 6 5 4 3 3 3 3 4 4 5 6 4 3 1 1 2 4 4 4 5 5 5 6 7 7 7 8 6 6 7 7 7 7 7 7 7 6 6 6 6 6 6 7 7 7 7 7 8 8 8
4 5 6 6 6 4 3 4 5 5 5 5 5 3 4 4 5 3 3 3 4 5 6 5 6 7 6 6 6 6 8 7 7 8 8 8 8 7 7 6 6 6 6 6 6 7 7 7 7 8 8 8 8 7
4 4 4 5 5 5 4 5 6 7 5 5 5 4 3 4 6 3 3 4 5 5 6 6 6 6 6 6 6 6 6 5 7 9 8 9 9 9 7 7 7 7 7 7 7 7 7 7 8 7 7 7 7 7